Time,TemperatureF,DewpointF,PressureIn,WindDirection,WindDirectionDegrees,WindSpeedMPH,WindSpeedGustMPH,Humidity,HourlyPrecipIn,Conditions,Clouds,dailyrainin,SolarRadiationWatts/m^2,SoftwareType,DateUTC
2013-04-30 00:52:00,62.0,19.0,-100.00,West,280,7.0,23.0,19,-99.99,,,0.00,1.000000,,2013-04-30 06:52:00,
2013-04-30 01:01:00,62.0,19.0,-100.00,West,280,7.0,23.0,19,-99.99,,,0.00,1.000000,,2013-04-30 07:01:00,
2013-04-30 01:11:00,62.0,19.0,-100.00,West,280,7.0,23.0,19,-99.99,,,0.00,1.000000,,2013-04-30 07:11:00,
2013-04-30 01:21:00,62.0,19.0,-100.00,West,280,7.0,23.0,19,-99.99,,,0.00,1.000000,,2013-04-30 07:21:00,
2013-04-30 01:52:00,59.0,20.0,-100.00,WNW,285,4.0,13.0,22,0.00,,,0.00,1.000000,,2013-04-30 07:52:00,
2013-04-30 02:02:00,59.0,20.0,-100.00,WNW,285,4.0,13.0,22,0.00,,,0.00,1.000000,,2013-04-30 08:02:00,
2013-04-30 02:11:00,59.0,20.0,-100.00,WNW,285,4.0,13.0,22,0.00,,,0.00,1.000000,,2013-04-30 08:11:00,
2013-04-30 02:22:00,59.0,20.0,-100.00,WNW,285,4.0,13.0,22,0.00,,,0.00,1.000000,,2013-04-30 08:22:00,
2013-04-30 02:52:00,54.0,22.0,-100.00,West,265,2.0,11.0,28,0.00,,,0.00,1.000000,,2013-04-30 08:52:00,
2013-04-30 03:01:00,54.0,22.0,-100.00,West,265,2.0,11.0,28,0.00,,,0.00,1.000000,,2013-04-30 09:01:00,
2013-04-30 03:11:00,54.0,22.0,-100.00,West,265,2.0,11.0,28,0.00,,,0.00,1.000000,,2013-04-30 09:11:00,
2013-04-30 03:22:00,54.0,22.0,-100.00,West,265,2.0,11.0,28,0.00,,,0.00,1.000000,,2013-04-30 09:22:00,
2013-04-30 08:52:00,40.0,34.0,-100.00,East,85,4.0,7.0,78,-99.99,,,0.00,135.000000,,2013-04-30 14:52:00,
2013-04-30 09:01:00,40.0,34.0,-100.00,East,85,4.0,7.0,78,-99.99,,,0.00,135.000000,,2013-04-30 15:01:00,
2013-04-30 09:11:00,40.0,34.0,-100.00,East,85,4.0,7.0,78,-99.99,,,0.00,135.000000,,2013-04-30 15:11:00,
2013-04-30 09:21:00,40.0,34.0,-100.00,East,85,4.0,7.0,78,-99.99,,,0.00,135.000000,,2013-04-30 15:21:00,
2013-04-30 09:52:00,46.0,35.0,-100.00,ENE,75,3.0,10.0,65,0.00,,,0.00,375.000000,,2013-04-30 15:52:00,
2013-04-30 10:02:00,46.0,35.0,-100.00,ENE,75,3.0,10.0,65,0.00,,,0.00,375.000000,,2013-04-30 16:02:00,
2013-04-30 10:12:00,46.0,35.0,-100.00,ENE,75,3.0,10.0,65,0.00,,,0.00,375.000000,,2013-04-30 16:12:00,
2013-04-30 10:23:00,46.0,35.0,-100.00,ENE,75,3.0,10.0,65,0.00,,,0.00,375.000000,,2013-04-30 16:23:00,
2013-04-30 10:52:00,49.0,34.0,-100.00,ENE,75,4.0,10.0,57,0.00,,,0.00,632.000000,,2013-04-30 16:52:00,
2013-04-30 11:02:00,49.0,34.0,-100.00,ENE,75,4.0,10.0,57,0.00,,,0.00,632.000000,,2013-04-30 17:02:00,
2013-04-30 11:12:00,49.0,34.0,-100.00,ENE,75,4.0,10.0,57,0.00,,,0.00,632.000000,,2013-04-30 17:12:00,
2013-04-30 11:22:00,49.0,34.0,-100.00,ENE,75,4.0,10.0,57,0.00,,,0.00,632.000000,,2013-04-30 17:22:00,
2013-04-30 11:52:00,52.0,34.0,-100.00,East,94,5.0,14.0,51,0.00,,,0.00,797.000000,,2013-04-30 17:52:00,
2013-04-30 12:01:00,52.0,34.0,-100.00,East,94,5.0,14.0,51,0.00,,,0.00,797.000000,,2013-04-30 18:01:00,
2013-04-30 12:11:00,52.0,34.0,-100.00,East,94,5.0,14.0,51,0.00,,,0.00,797.000000,,2013-04-30 18:11:00,
2013-04-30 12:22:00,52.0,34.0,-100.00,East,94,5.0,14.0,51,0.00,,,0.00,797.000000,,2013-04-30 18:22:00,
2013-04-30 12:52:00,52.0,34.0,-100.00,ESE,117,7.0,13.0,51,0.00,,,0.00,788.000000,,2013-04-30 18:52:00,
2013-04-30 13:01:00,52.0,34.0,-100.00,ESE,117,7.0,13.0,51,0.00,,,0.00,788.000000,,2013-04-30 19:01:00,
2013-04-30 13:11:00,52.0,34.0,-100.00,ESE,117,7.0,13.0,51,0.00,,,0.00,788.000000,,2013-04-30 19:11:00,
2013-04-30 13:22:00,52.0,34.0,-100.00,ESE,117,7.0,13.0,51,0.00,,,0.00,788.000000,,2013-04-30 19:22:00,
2013-04-30 13:52:00,49.0,35.0,-100.00,ESE,103,6.0,10.0,58,0.00,,,0.00,576.000000,,2013-04-30 19:52:00,
2013-04-30 14:02:00,49.0,35.0,-100.00,ESE,103,6.0,10.0,58,0.00,,,0.00,576.000000,,2013-04-30 20:02:00,
2013-04-30 14:11:00,49.0,35.0,-100.00,ESE,103,6.0,10.0,58,0.00,,,0.00,576.000000,,2013-04-30 20:11:00,
2013-04-30 14:21:00,49.0,35.0,-100.00,ESE,103,6.0,10.0,58,0.00,,,0.00,576.000000,,2013-04-30 20:21:00,
2013-04-30 14:52:00,47.0,35.0,-100.00,East,87,4.0,9.0,64,0.00,,,0.00,246.000000,,2013-04-30 20:52:00,
2013-04-30 15:02:00,47.0,35.0,-100.00,East,87,4.0,9.0,64,0.00,,,0.00,246.000000,,2013-04-30 21:02:00,
2013-04-30 15:11:00,47.0,35.0,-100.00,East,87,4.0,9.0,64,0.00,,,0.00,246.000000,,2013-04-30 21:11:00,
2013-04-30 15:22:00,47.0,35.0,-100.00,East,87,4.0,9.0,64,0.00,,,0.00,246.000000,,2013-04-30 21:22:00,
2013-04-30 15:53:00,51.0,37.0,-100.00,SE,133,5.0,8.0,58,0.00,,,0.00,331.000000,,2013-04-30 21:53:00,
2013-04-30 16:02:00,51.0,37.0,-100.00,SE,133,5.0,8.0,58,0.00,,,0.00,331.000000,,2013-04-30 22:02:00,
2013-04-30 16:12:00,51.0,37.0,-100.00,SE,133,5.0,8.0,58,0.00,,,0.00,331.000000,,2013-04-30 22:12:00,
2013-04-30 16:23:00,51.0,37.0,-100.00,SE,133,5.0,8.0,58,0.00,,,0.00,331.000000,,2013-04-30 22:23:00,
2013-04-30 16:53:00,49.0,36.0,-100.00,East,93,5.0,11.0,60,0.00,,,0.00,470.000000,,2013-04-30 22:53:00,
2013-04-30 17:02:00,49.0,36.0,-100.00,East,93,5.0,11.0,60,0.00,,,0.00,470.000000,,2013-04-30 23:02:00,
2013-04-30 17:12:00,49.0,36.0,-100.00,East,93,5.0,11.0,60,0.00,,,0.00,470.000000,,2013-04-30 23:12:00,
2013-04-30 17:22:00,49.0,36.0,-100.00,East,93,5.0,11.0,60,0.00,,,0.00,470.000000,,2013-04-30 23:22:00,
2013-04-30 17:52:00,48.0,38.0,-100.00,East,82,4.0,11.0,67,0.00,,,0.00,222.000000,,2013-04-30 23:52:00,
2013-04-30 18:02:00,48.0,38.0,-100.00,East,82,4.0,11.0,67,0.00,,,0.00,222.000000,,2013-05-01 00:02:00,
2013-04-30 18:11:00,48.0,38.0,-100.00,East,82,4.0,11.0,67,0.00,,,0.00,222.000000,,2013-05-01 00:11:00,
2013-04-30 18:21:00,48.0,38.0,-100.00,East,82,4.0,11.0,67,0.00,,,0.00,222.000000,,2013-05-01 00:21:00,
2013-04-30 18:52:00,47.0,37.0,-100.00,East,81,4.0,9.0,68,0.00,,,-99.99,181.000000,,2013-05-01 00:52:00,
2013-04-30 19:01:00,47.0,37.0,-100.00,East,81,4.0,9.0,68,0.00,,,-99.99,181.000000,,2013-05-01 01:01:00,
2013-04-30 19:11:00,47.0,37.0,-100.00,East,81,4.0,9.0,68,0.00,,,-99.99,181.000000,,2013-05-01 01:11:00,
2013-04-30 19:21:00,47.0,37.0,-100.00,East,81,4.0,9.0,68,0.00,,,-99.99,181.000000,,2013-05-01 01:21:00,
2013-04-30 19:52:00,46.0,35.0,-100.00,East,81,3.0,8.0,66,0.00,,,0.00,31.000000,,2013-05-01 01:52:00,
2013-04-30 20:02:00,46.0,35.0,-100.00,East,81,3.0,8.0,66,0.00,,,0.00,31.000000,,2013-05-01 02:02:00,
2013-04-30 20:11:00,46.0,35.0,-100.00,East,81,3.0,8.0,66,0.00,,,0.00,31.000000,,2013-05-01 02:11:00,
2013-04-30 20:21:00,46.0,35.0,-100.00,East,81,3.0,8.0,66,0.00,,,0.00,31.000000,,2013-05-01 02:21:00,
2013-04-30 20:52:00,44.0,35.0,-100.00,ENE,73,2.0,6.0,71,0.00,,,-99.99,6.000000,,2013-05-01 02:52:00,
2013-04-30 21:02:00,44.0,35.0,-100.00,ENE,73,2.0,6.0,71,0.00,,,-99.99,6.000000,,2013-05-01 03:02:00,
2013-04-30 21:11:00,44.0,35.0,-100.00,ENE,73,2.0,6.0,71,0.00,,,-99.99,6.000000,,2013-05-01 03:11:00,
2013-04-30 21:21:00,44.0,35.0,-100.00,ENE,73,2.0,6.0,71,0.00,,,-99.99,6.000000,,2013-05-01 03:21:00,
2013-04-30 21:53:00,41.0,38.0,-100.00,East,92,4.0,6.0,89,0.03,,,-99.99,1.000000,,2013-05-01 03:53:00,
2013-04-30 22:03:00,41.0,38.0,-100.00,East,92,4.0,6.0,89,0.03,,,-99.99,1.000000,,2013-05-01 04:03:00,
2013-04-30 22:12:00,41.0,38.0,-100.00,East,92,4.0,6.0,89,0.03,,,-99.99,1.000000,,2013-05-01 04:12:00,
2013-04-30 22:22:00,41.0,38.0,-100.00,East,92,4.0,6.0,89,0.03,,,-99.99,1.000000,,2013-05-01 04:22:00,
2013-04-30 22:52:00,33.0,32.0,-100.00,ESE,116,3.0,9.0,97,0.07,,,-99.99,1.000000,,2013-05-01 04:52:00,
2013-04-30 23:02:00,33.0,32.0,-100.00,ESE,116,3.0,9.0,97,0.07,,,-99.99,1.000000,,2013-05-01 05:02:00,
2013-04-30 23:11:00,33.0,32.0,-100.00,ESE,116,3.0,9.0,97,0.07,,,-99.99,1.000000,,2013-05-01 05:11:00,
2013-04-30 23:21:00,33.0,32.0,-100.00,ESE,116,3.0,9.0,97,0.07,,,-99.99,1.000000,,2013-05-01 05:21:00,
2013-04-30 23:52:00,32.0,32.0,-100.00,SE,124,2.0,4.0,98,0.00,,,-99.99,1.000000,,2013-05-01 05:52:00,